星链-34708 (STARLINK-34708)

导读

STARLINK-34708是美国SpaceX星链互联网卫星星座中的一员,于2025年7月31日由美国发射升空。该卫星继承星链星座低轨通信卫星技术设计,旨在为全球尤其是偏远地区提供高速低延迟互联网接入服务,进一步扩充了星链星座的在轨规模,增强了星座覆盖与服务能力。

Basic Information
目录编号:
65062
目录名称:
STARLINK-34708
国际标识:
2025-165G
轨道中心:
EARTH
卫星名称:
星链-34708
卫星全名:
星链-34708 (STARLINK-34708)
卫星状态:
在轨 (已飞行401 天)
发射日期:
2025-07-31 UTC
国别 :
美国 (US)
星等 :
--
Orbit Information
数据来源 国际轨道数据
星历时间: 2026-09-05T14:51:02+0800
9小时前
查看轨道信息
半长轴: 6927.616km
偏心率: 0.0001285
轨道倾角: 97.285°
近地点辐角 120.905°
升交点赤经 320.016°
平近点角 239.230°
近地点: 548.588km
远地点: 550.37km
周期: 95.639分钟
每日圈数: 15.056606
Detailed Information
固有亮度:
5
最大亮度:
2.5
卫星平台:
Starlink V1.0
覆盖范围:
全球
运营商:
太空探索技术公司
运营商所在国:
美国
制造商(研发单位):
太空探索技术公司
制造商所在国:
美国
使用方式:
暂无
Satellite Introduction
Starlink 计划是 SpaceX 推出的全球卫星互联网项目,通过发射低轨道卫星,为全球尤其是偏远地区提供高速、低延迟的互联网服务。自 2019 年起,Starlink 已部署数千颗卫星,旨在缩小全球数字鸿沟,推动互联网普及。该项目还为军事、航空等行业提供通信支持,带来广泛经济效益。
2D Orbit Map
3D Orbit Map
Orbit Altitude Analysis Chart
Orbit Inclination Analysis Chart
Orbit Comprehensive Analysis Chart
View Comprehensive Chart
Conjunction Data List
Event ID Objects TCA Miss Dist (km) Collision Risk Probability Collision Risk Index (CRI) Action
CDM_260904-231001-288906-506222
2026-09-04T
23:10:10+0000
2.654 km
极远距离
1.5752E-6 低风险 0.39
CDM_260906-155500-036906-506222
2026-09-06T
15:55:26+0000
2.170 km
极远距离
8.2634E-7 极低风险 0.33